Location: Bonac
(42.8765°N, 0.9753°E)
Time: 14:19:54
(UTC+00:00)

Cosmos 292 Rocket - Pass Details

Date: 12 January 2026
Orbit: 663 x 681 km, 74.0° (Epoch: 18 February)

Event Time Altitude Azimuth Distance (km) Brightness Sun altitude
Rises 18:26:19 0° 346° (NNW) 3,009 7.1 -18.3°
Reaches altitude 10° 18:28:45 10° 354° (N) 2,092 6.2 -18.8°
Enters shadow 18:32:42 39° 49° (NE) 1,005 4.2 -19.5°
